THOR ABLESTAR DEB, 357

Orbit data source: Space-Track

THOR ABLESTAR DEB, 357 is space debris in LEO originally from a launch on Thu, 29 Jun 1961 UTC launched from the Air Force Eastern Test Range (AFETR). Debris objects in space refer to the collection of defunct objects orbiting the Earth. Examples of debris include non-operational satellites, rocket bodies, and fragments generated from explosions, collisions, or faulty payload assembly.

Loading next visibility...
Identifier
357, 1961-015DX
Orbit
LEO
Country
Flag of USUS
Related business
Manufacturer
Unknown
Mission
Spacecraft
Bus & Motor
Unknown
Mass
Unknown
Launch date (UTC)
1961-06-29 (64 years ago)
Launch vehicle
Unknown
Launch site
Air Force Eastern Test Range (AFETR)
Object type
Payload
Rocket body
Debris
Shape & HBR
Unknown shape, 0.1 m
Radar Cross Section
Small (<0.1 m²)

Expand to show TLE details & history
Last TLE update: 2 days ago

TLE from 2 days ago
0 THOR ABLESTAR DEB
1 00357U 61015DX  25340.12371151  .00002433  00000-0  14445-2 0  9995
2 00357  66.8101  12.1638 0014839 309.2393  50.7378 14.09110169268653
Epoch: 2025-12-06T02:58Z
TLE epoch observation values (Epoch: 2025-12-06T02:58:08.674Z)
Latitude
0.00002°
Longitude
-107.52829°
Altitude
857.722 km
Speed
7.428 km/s
True Right ascension
00h 48m 39s
True Declination
0° 00' 00"
Sunlit
Object was in daylight at epoch
Visualization orbit readout
Latitude
Unknown
Longitude
Unknown
Altitude
Unknown
Speed
Unknown
Apparent Right ascension
Unknown
Apparent Declination
Unknown
Sunlit
N/A
Visualization observer readout
Local Sidereal Time
15:03:59
Azimuth
Unknown
Elevation
Unknown
Doppler factor
Unknown
Orbital elements
Apogee altitude
871.538 km
Perigee altitude
850.055 km
Semi-major axis
7,238.933 km
Eccentricity
0.00148
Inclination
66.8101°
RAAN
12.1638°
Arg. of periapsis
309.2393°
True anomaly
50.86961°
Mean anomaly
50.7378°
Eccentric anomaly
50.80369°
Mean motion
3.52396 °/min
Orbital period
102.16 mins
BSTAR
0.0014445
Loading maneuver chart data...
Computing Atmospheric mass density...
Loading historical data...
Loading historical data...
Loading historical data...
Loading historical data...
Loading historical data...
Loading historical data...
Loading historical data...

Documentation

Showing up to 5 results
|